TimeCST,TemperatureF,Dew PointF,Humidity,Sea Level PressureIn,VisibilityMPH,Wind Direction,Wind SpeedMPH,Gust SpeedMPH,PrecipitationIn,Events,Conditions,WindDirDegrees,DateUTC
12:56 AM,33.1,28.9,85,29.91,10.0,WNW,4.6,-,N/A,,Clear,290,2013-11-14 06:56:00
1:56 AM,30.0,27.0,88,29.90,10.0,South,4.6,-,N/A,,Clear,190,2013-11-14 07:56:00
2:56 AM,30.9,27.0,85,29.89,10.0,Calm,Calm,-,N/A,,Partly Cloudy,0,2013-11-14 08:56:00
3:56 AM,33.1,28.9,85,29.89,10.0,Calm,Calm,-,N/A,,Partly Cloudy,0,2013-11-14 09:56:00
4:56 AM,34.0,30.0,85,29.91,10.0,West,4.6,-,N/A,,Overcast,260,2013-11-14 10:56:00
5:56 AM,36.0,32.0,86,29.91,10.0,SSW,3.5,-,N/A,,Overcast,210,2013-11-14 11:56:00
6:56 AM,37.0,33.1,86,29.91,10.0,Variable,5.8,-,0.00,,Overcast,0,2013-11-14 12:56:00
7:56 AM,39.0,36.0,89,29.93,10.0,WSW,3.5,-,0.00,,Overcast,250,2013-11-14 13:56:00
8:56 AM,41.0,37.0,86,29.94,10.0,SW,4.6,-,0.00,,Overcast,220,2013-11-14 14:56:00
9:56 AM,44.1,37.9,79,29.94,10.0,WSW,5.8,-,N/A,,Mostly Cloudy,240,2013-11-14 15:56:00
10:56 AM,45.0,37.9,76,29.93,10.0,West,6.9,-,N/A,,Mostly Cloudy,260,2013-11-14 16:56:00
11:56 AM,53.1,37.9,57,29.90,10.0,West,11.5,-,N/A,,Scattered Clouds,280,2013-11-14 17:56:00
12:56 PM,55.9,37.0,49,29.88,10.0,WNW,12.7,20.7,N/A,,Partly Cloudy,300,2013-11-14 18:56:00
1:56 PM,55.9,36.0,47,29.87,10.0,WNW,11.5,-,N/A,,Partly Cloudy,300,2013-11-14 19:56:00
2:56 PM,55.0,36.0,49,29.86,10.0,NW,15.0,-,N/A,,Partly Cloudy,310,2013-11-14 20:56:00
3:56 PM,53.1,36.0,52,29.86,10.0,NW,10.4,-,N/A,,Partly Cloudy,310,2013-11-14 21:56:00
4:56 PM,46.0,35.1,66,29.87,10.0,WNW,4.6,-,N/A,,Scattered Clouds,300,2013-11-14 22:56:00
5:56 PM,41.0,34.0,76,29.88,10.0,NW,9.2,-,N/A,,Partly Cloudy,310,2013-11-14 23:56:00
6:56 PM,37.9,32.0,79,29.89,10.0,West,5.8,-,N/A,,Scattered Clouds,270,2013-11-15 00:56:00
7:56 PM,35.1,32.0,89,29.90,10.0,Calm,Calm,-,N/A,,Clear,0,2013-11-15 01:56:00
8:56 PM,28.9,28.0,96,29.90,10.0,Calm,Calm,-,N/A,,Partly Cloudy,0,2013-11-15 02:56:00
9:56 PM,28.9,27.0,92,29.89,10.0,Calm,Calm,-,N/A,,Clear,0,2013-11-15 03:56:00
10:56 PM,30.0,27.0,88,29.88,10.0,Calm,Calm,-,N/A,,Clear,0,2013-11-15 04:56:00
11:56 PM,27.0,25.0,92,29.88,10.0,Calm,Calm,-,N/A,,Clear,0,2013-11-15 05:56:00